Change the Weather History Date:

Monday, November 12, 2012

  Actual Average Record
Temperature  
Mean Temperature 50 °F -  
Max Temperature 55 °F 51 °F 60 °F (1996)
Min Temperature 44 °F 35 °F 12 °F (1955)
Degree Days  
Heating Degree Days 16    
Moisture  
Dew Point 46 °F    
Average Humidity 95    
Maximum Humidity 100    
Minimum Humidity 72    
Precipitation  
Precipitation 0.07 in - - ()
Sea Level Pressure  
Sea Level Pressure 30.14 in    
Wind  
Wind Speed 3 mph (SSW)    
Max Wind Speed 13 mph    
Max Gust Speed -    
Visibility 8 miles    
Events Rain    
Averages and records for this station are not official NWS values.
T = Trace of Precipitation, MM = Missing Value Source: NWS Daily Summary

Daily Weather History Graph

Daily Weather History Graph

Search for Another Location

Airport or City:

Trip Planner

Search our weather history database for the weather conditions in past years. The results will help you decide how hot, cold, wet, or windy it might be!

Date:

Astronomy

Nov. 12, 2012 Rise Set
Actual Time 7:10 AM PST 4:37 PM PST
Civil Twilight 6:37 AM PST 5:10 PM PST
Nautical Twilight 6:00 AM PST 5:47 PM PST
Astronomical Twilight 5:24 AM PST 6:23 PM PST
Moon 5:39 AM PST (11/12) 3:48 PM PST (11/12)
Length of Visible Light 10h 33m
Length of Day
9h 27m
Waning Crescent, 2% of the Moon is Illuminated
Nov 12
Waning Crescent
Nov 13
New
Nov 20
First Quarter
Nov 28
Full
Dec 6
Last Quarter

Hourly Weather History & Observations

Time (PST) Temp. Windchill Dew Point Humidity Pressure Visibility Wind Dir Wind Speed Gust Speed Precip Events Conditions
12:05 AM 44.6 °F 42.2 °F 44.6 °F 100% 30.07 in 10.0 mi North 4.6 mph - N/A Rain Light Rain
12:15 AM 44.6 °F - 44.6 °F 100% 30.08 in 10.0 mi NNE 2.3 mph - N/A   Overcast
12:56 AM 44.6 °F - 44.6 °F 100% 30.07 in 10.0 mi Calm Calm - N/A   Overcast
12:58 AM 44.6 °F - 44.4 °F 99% 30.10 in 10.0 mi North 2.3 mph - 0.01 in   Overcast
1:05 AM 44.6 °F 43.1 °F 44.6 °F 100% 30.08 in 10.0 mi North 3.5 mph - N/A Rain Light Rain
1:53 AM 44.6 °F 42.2 °F 44.6 °F 100% 30.08 in 9.0 mi NNE 4.6 mph - N/A   Overcast
1:58 AM 44.6 °F 43.1 °F 44.4 °F 99% 30.10 in 9.0 mi NNE 3.5 mph - 0.02 in   Overcast
2:17 AM 44.6 °F - 44.6 °F 100% 30.08 in 7.0 mi NNE 1.2 mph - N/A Rain Light Rain
2:31 AM 44.6 °F - 44.6 °F 100% 30.08 in 7.0 mi NE 2.3 mph - N/A   Overcast
2:58 AM 44.6 °F - 44.4 °F 99% 30.10 in 6.0 mi NNE 2.3 mph - 0.00 in   Overcast
3:06 AM 44.6 °F - 44.6 °F 100% 30.08 in 5.0 mi NNE 2.3 mph - N/A   Light Drizzle
3:25 AM 44.6 °F - 44.6 °F 100% 30.08 in 5.0 mi NNE 1.2 mph - N/A   Overcast
3:58 AM 44.2 °F - 43.9 °F 99% 30.10 in 6.0 mi North 2.3 mph - 0.00 in   Overcast
4:03 AM 44.6 °F 43.1 °F 44.6 °F 100% 30.08 in 6.0 mi NNE 3.5 mph - N/A   Overcast
4:04 AM 44.6 °F - 44.6 °F 100% 30.08 in 6.0 mi Variable 2.3 mph - N/A Rain Light Rain
4:17 AM 44.6 °F - 44.6 °F 100% 30.08 in 8.0 mi North 2.3 mph - N/A   Overcast
4:37 AM 44.6 °F - 44.6 °F 100% 30.09 in 6.0 mi Calm Calm - N/A   Overcast
4:47 AM 44.6 °F - 44.6 °F 100% 30.09 in 6.0 mi Calm Calm - N/A   Overcast
4:52 AM 44.6 °F - 44.6 °F 100% 30.09 in 5.0 mi Calm Calm - N/A Rain Light Rain
4:57 AM 44.6 °F - 44.6 °F 100% 30.09 in 4.0 mi Calm Calm - N/A   Light Drizzle
4:58 AM 44.4 °F - 44.2 °F 99% 30.11 in 4.0 mi Calm Calm - 0.01 in   Light Drizzle
5:07 AM 44.6 °F - 44.6 °F 100% 30.09 in 4.0 mi South 1.2 mph - N/A   Overcast
5:14 AM 44.6 °F - 44.6 °F 100% 30.09 in 3.0 mi Calm Calm - N/A   Light Drizzle
5:24 AM 44.6 °F - 44.6 °F 100% 30.09 in 4.0 mi Calm Calm - N/A   Overcast
5:29 AM 44.6 °F - 44.6 °F 100% 30.09 in 4.0 mi Calm Calm - N/A   Light Drizzle
5:41 AM 44.6 °F - 44.6 °F 100% 30.09 in 6.0 mi Calm Calm - N/A   Overcast
5:44 AM 44.6 °F - 44.6 °F 100% 30.09 in 7.0 mi Calm Calm - N/A Rain Light Rain
5:58 AM 44.6 °F - 44.4 °F 99% 30.11 in 4.0 mi Calm Calm - 0.00 in Rain Light Rain
6:02 AM 44.6 °F - 44.6 °F 100% 30.09 in 5.0 mi Calm Calm - N/A   Overcast
6:07 AM 44.6 °F - 44.6 °F 100% 30.09 in 7.0 mi Calm Calm - N/A   Overcast
6:58 AM 44.8 °F 43.3 °F 44.4 °F 99% 30.12 in 10.0 mi South 3.5 mph - 0.01 in   Overcast
7:08 AM 44.6 °F - 44.6 °F 100% 30.10 in 10.0 mi WSW 1.2 mph - N/A   Overcast
7:43 AM 46.4 °F 45.2 °F 44.6 °F 93% 30.11 in 10.0 mi SW 3.5 mph - N/A   Overcast
7:58 AM 45.9 °F 44.6 °F 45.7 °F 99% 30.13 in 10.0 mi SSW 3.5 mph - N/A   Overcast
8:58 AM 48.0 °F - 47.1 °F 97% 30.14 in 10.0 mi South 9.2 mph - N/A   Overcast
9:58 AM 50.4 °F - 48.0 °F 92% 30.16 in 10.0 mi SW 8.1 mph - N/A   Overcast
10:58 AM 52.3 °F - 47.7 °F 84% 30.17 in 10.0 mi SW 9.2 mph - N/A   Overcast
11:18 AM 53.6 °F - 48.2 °F 82% 30.15 in 10.0 mi SW 9.2 mph - N/A   Scattered Clouds
11:58 AM 54.5 °F - 47.7 °F 78% 30.17 in 10.0 mi SW 12.7 mph - N/A   Scattered Clouds
12:08 PM 55.4 °F - 48.2 °F 77% 30.15 in 10.0 mi SSW 10.4 mph - N/A   Mostly Cloudy
12:38 PM 55.4 °F - 48.2 °F 77% 30.15 in 10.0 mi SW 9.2 mph - N/A   Mostly Cloudy
12:43 PM 55.4 °F - 46.4 °F 72% 30.15 in 10.0 mi SW 11.5 mph - N/A   Mostly Cloudy
12:53 PM 53.6 °F - 46.4 °F 77% 30.15 in 10.0 mi SW 9.2 mph - N/A   Overcast
12:58 PM 54.1 °F - 47.1 °F 77% 30.17 in 10.0 mi SW 10.4 mph - N/A   Overcast
1:58 PM 53.6 °F - 47.5 °F 80% 30.18 in 10.0 mi SW 11.5 mph - N/A   Overcast
2:58 PM 52.9 °F - 47.5 °F 82% 30.18 in 10.0 mi South 5.8 mph - N/A   Overcast
3:58 PM 52.3 °F - 47.3 °F 83% 30.19 in 10.0 mi SW 3.5 mph - N/A   Mostly Cloudy
4:58 PM 51.1 °F - 47.3 °F 87% 30.19 in 10.0 mi SW 4.6 mph - N/A   Overcast
5:54 PM 50.0 °F - 46.4 °F 87% 30.18 in 10.0 mi SSW 2.3 mph - N/A Rain Light Rain
5:58 PM 49.3 °F - 46.9 °F 92% 30.20 in 10.0 mi South 2.3 mph - 0.00 in Rain Light Rain
6:03 PM 48.2 °F - 46.4 °F 93% 30.18 in 10.0 mi South 2.3 mph - N/A   Overcast
6:08 PM 48.2 °F - 46.4 °F 93% 30.18 in 10.0 mi South 3.5 mph - N/A Rain Light Rain
6:17 PM 48.2 °F - 48.2 °F 100% 30.18 in 10.0 mi South 3.5 mph - N/A   Overcast
6:21 PM 48.2 °F - 48.2 °F 100% 30.18 in 10.0 mi South 3.5 mph - N/A Rain Light Rain
6:32 PM 48.2 °F - 48.2 °F 100% 30.18 in 10.0 mi South 4.6 mph - N/A   Overcast
6:58 PM 48.0 °F - 47.1 °F 97% 30.21 in 10.0 mi South 4.6 mph - 0.00 in   Overcast
7:21 PM 48.2 °F - 48.2 °F 100% 30.19 in 10.0 mi South 3.5 mph - N/A Rain Light Rain
7:35 PM 48.2 °F - 48.2 °F 100% 30.19 in 10.0 mi South 4.6 mph - N/A   Overcast
7:52 PM 48.2 °F - 48.2 °F 100% 30.20 in 10.0 mi SSW 3.5 mph - N/A Rain Light Rain
7:58 PM 48.4 °F - 47.7 °F 97% 30.22 in 10.0 mi South 3.5 mph - 0.00 in Rain Light Rain
8:10 PM 48.2 °F - 48.2 °F 100% 30.20 in 10.0 mi SSW 4.6 mph - N/A   Overcast
8:15 PM 48.2 °F - 48.2 °F 100% 30.20 in 10.0 mi South 3.5 mph - N/A Rain Light Rain
8:25 PM 48.2 °F - 48.2 °F 100% 30.21 in 10.0 mi South 2.3 mph - N/A Rain Light Rain
8:31 PM 48.2 °F - 48.2 °F 100% 30.21 in 10.0 mi SSW 2.3 mph - N/A   Overcast
8:56 PM 48.2 °F - 46.4 °F 93% 30.21 in 9.0 mi South 3.5 mph - N/A   Overcast
8:58 PM 47.7 °F - 47.3 °F 99% 30.23 in 9.0 mi South 3.5 mph - 0.02 in   Overcast
9:23 PM 48.2 °F - 46.4 °F 93% 30.21 in 10.0 mi SSW 2.3 mph - N/A Rain Light Rain
9:34 PM 48.2 °F - 46.4 °F 93% 30.21 in 10.0 mi South 3.5 mph - N/A   Overcast
9:58 PM 47.3 °F - 46.9 °F 99% 30.24 in 10.0 mi South 3.5 mph - 0.00 in   Overcast
10:58 PM 47.5 °F - 47.3 °F 99% 30.24 in 10.0 mi South 6.9 mph - N/A   Overcast
11:58 PM 46.6 °F - 46.4 °F 99% 30.24 in 10.0 mi SE 1.2 mph - N/A   Overcast